Topeka, KS

3:49 PM CST on January 16, 2018 (GMT -0600)
Billard Municipal

Weather History for KTOP - June, 2013

Change the Weather History Date:

Thursday, June 27, 2013

  Actual Average Record
Temperature  
Mean Temperature 80 °F 77 °F  
Max Temperature 87 °F 88 °F 106 °F (1980)
Min Temperature 72 °F 67 °F 49 °F (1968)
Degree Days  
Heating Degree Days 0 0  
Month to date heating degree days 5 6  
Since 1 June heating degree days 5 6  
Since 1 July heating degree days 4901 5019  
Cooling Degree Days 15 12  
Month to date cooling degree days 306 246  
Year to date cooling degree days 451 372  
Since 1 June cooling degree days 306 246  
Growing Degree Days 30 (Base 50)    
Moisture  
Dew Point 70 °F    
Average Humidity 74    
Maximum Humidity 87    
Minimum Humidity 61    
Precipitation  
Precipitation 0.46 in 0.17 in 1.84 in (1981)
Month to date precipitation 3.15 4.90  
Year to date precipitation 17.48 18.01  
Snow  
Snow 0.00 in 0.00 in T in (1953)
Month to date snowfall T 0.0  
Year to date snowfall 24.2 11.3  
Since 1 July snowfall 29.6 17.8  
Snow Depth 0.00 in    
Sea Level Pressure  
Sea Level Pressure 29.91 in    
Wind  
Wind Speed 4 mph (NNE)    
Max Wind Speed 14 mph    
Max Gust Speed 37 mph    
Visibility 9 miles    
Events Rain , Thunderstorm    
T = Trace of Precipitation, MM = Missing Value Source: NWS Daily Summary

Daily Weather History Graph

Daily Weather History Graph

Search for Another Location

Airport or City:

Trip Planner

Search our weather history database for the weather conditions in past years. The results will help you decide how hot, cold, wet, or windy it might be!

Date:

Astronomy

Jun. 27, 2013 Rise Set
Actual Time 5:58 AM CDT 8:52 PM CDT
Civil Twilight 5:26 AM CDT 9:24 PM CDT
Nautical Twilight 4:46 AM CDT 10:05 PM CDT
Astronomical Twilight 3:59 AM CDT 10:51 PM CDT
Moon 11:52 PM CDT (6/27) 10:58 AM CDT (6/27)
Length of Visible Light 15h 58m
Length of Day
14h 53m
Waning Gibbous, 76% of the Moon is Illuminated
Jun 27
Waning Gibbous
Jun 29
Last Quarter
Jul 8
New
Jul 15
First Quarter
Jul 22
Full

Hourly Weather History & Observations

Time (CDT) Temp. Heat Index Dew Point Humidity Pressure Visibility Wind Dir Wind Speed Gust Speed Precip Events Conditions
12:53 AM 75.0 °F - 70.0 °F 84% 29.87 in 10.0 mi Calm Calm - N/A   Clear
1:53 AM 73.0 °F - 70.0 °F 90% 29.87 in 10.0 mi Calm Calm - N/A   Clear
2:53 AM 73.0 °F - 69.1 °F 87% 29.88 in 10.0 mi Calm Calm - N/A   Clear
3:53 AM 73.9 °F - 70.0 °F 87% 29.88 in 10.0 mi Calm Calm - N/A   Clear
4:53 AM 73.9 °F - 70.0 °F 87% 29.89 in 10.0 mi Calm Calm - N/A   Clear
5:53 AM 73.9 °F - 69.1 °F 85% 29.89 in 10.0 mi Calm Calm - N/A   Clear
6:53 AM 75.0 °F - 70.0 °F 84% 29.90 in 10.0 mi Calm Calm - N/A   Clear
7:53 AM 78.1 °F - 70.0 °F 76% 29.91 in 10.0 mi Calm Calm - N/A   Clear
8:53 AM 84.9 °F 92.1 °F 73.9 °F 69% 29.92 in 10.0 mi South 4.6 mph - N/A   Clear
9:53 AM 87.1 °F 96.3 °F 75.0 °F 67% 29.93 in 10.0 mi Calm Calm - N/A   Clear
10:53 AM 84.0 °F 92.6 °F 75.9 °F 76% 29.97 in 10.0 mi North 13.8 mph - N/A   Clear
11:53 AM 78.1 °F - 66.9 °F 68% 29.97 in 10.0 mi ENE 12.7 mph - N/A   Clear
12:53 PM 80.1 °F 82.3 °F 66.9 °F 64% 29.97 in 10.0 mi ENE 6.9 mph - N/A   Clear
1:53 PM 81.0 °F 83.8 °F 68.0 °F 65% 29.92 in 10.0 mi ESE 10.4 mph - 0.00 in   Clear
2:53 PM 84.9 °F 88.8 °F 69.1 °F 59% 29.92 in 10.0 mi SE 4.6 mph - N/A   Clear
3:53 PM 82.9 °F 87.0 °F 70.0 °F 65% 29.91 in 10.0 mi SSE 5.8 mph - N/A   Clear
4:53 PM 82.9 °F 87.0 °F 70.0 °F 65% 29.82 in 10.0 mi East 11.5 mph - 0.01 in   Clear
5:53 PM 82.9 °F 87.5 °F 71.1 °F 67% 29.88 in 10.0 mi North 10.4 mph - N/A   Partly Cloudy
6:53 PM 82.0 °F 86.3 °F 71.1 °F 69% 29.82 in 10.0 mi NNE 5.8 mph - N/A   Clear
7:53 PM 78.1 °F - 71.1 °F 79% 29.86 in 10.0 mi NNE 10.4 mph - 0.00 in Rain , Thunderstorm Light Rain
8:07 PM 78.1 °F - 70.0 °F 76% 29.92 in 10.0 mi NW 10.4 mph - 0.00 in Rain , Thunderstorm Light Thunderstorms and Rain
8:32 PM 75.0 °F - 69.1 °F 82% 29.89 in 10.0 mi NNE 9.2 mph - 0.01 in Rain Light Rain
8:39 PM 75.0 °F - 69.1 °F 82% 29.87 in 10.0 mi NE 9.2 mph - 0.01 in Rain , Thunderstorm Light Rain
8:50 PM 75.2 °F - 69.8 °F 83% 29.92 in 10.0 mi North 12.7 mph - 0.01 in Thunderstorm Thunderstorm
8:53 PM 75.0 °F - 69.1 °F 82% 29.95 in 10.0 mi West 18.4 mph 27.6 mph 0.01 in Thunderstorm Thunderstorm
9:12 PM 73.0 °F - 68.0 °F 84% 29.93 in 1.8 mi NNE 20.7 mph 26.5 mph 0.15 in Rain , Thunderstorm Heavy Thunderstorms and Rain
9:19 PM 72.0 °F - 69.1 °F 91% 29.88 in 1.2 mi ENE 20.7 mph 36.8 mph 0.34 in Rain , Thunderstorm Heavy Thunderstorms and Rain
9:26 PM 73.0 °F - 69.1 °F 87% 29.92 in 2.5 mi North 11.5 mph 36.8 mph 0.43 in Rain , Thunderstorm Light Thunderstorms and Rain
9:33 PM 73.0 °F - 69.1 °F 87% 29.91 in 10.0 mi Variable 4.6 mph - 0.43 in Rain , Thunderstorm Light Thunderstorms and Rain
9:41 PM 73.0 °F - 68.0 °F 84% 29.92 in 10.0 mi NNE 10.4 mph - 0.43 in Thunderstorm Mostly Cloudy
9:53 PM 73.0 °F - 68.0 °F 84% 29.88 in 10.0 mi NNE 9.2 mph - 0.43 in Thunderstorm Mostly Cloudy
10:03 PM 73.9 °F - 68.0 °F 82% 29.93 in 10.0 mi WNW 8.1 mph - N/A   Mostly Cloudy
10:21 PM 73.0 °F - 69.1 °F 87% 29.96 in 8.0 mi West 10.4 mph - 0.01 in Rain , Thunderstorm Light Thunderstorms and Rain
10:49 PM 73.4 °F - 69.8 °F 88% 29.97 in 10.0 mi Calm Calm - 0.01 in Thunderstorm Overcast
10:53 PM 73.0 °F - 70.0 °F 90% 29.94 in 10.0 mi Calm Calm - 0.01 in Thunderstorm Overcast
11:04 PM 73.0 °F - 70.0 °F 90% 29.95 in 10.0 mi NNE 8.1 mph - N/A   Overcast
11:53 PM 73.0 °F - 70.0 °F 90% 29.93 in 10.0 mi Calm Calm - N/A   Overcast